Weather observations for the past three days for
Westfield, Barnes Municipal Airport
Imperial (Metric)
Date Time (edt) Wind (mph) Vis. (mi.) Weather Sky Cond. Temperature (ºF) Relative Humidity Wind Chill (°F) Heat Index (°F) Pressure Precipitation (in)
Air Dwpt 6 hour altimeter (in) sea level (mb) 1 hr 3 hr 6 hr
Max. Min.
20 17:53 S 5 10.00 Fair CLR 89.1 80.1 75% 106 30.15 1020.7
20 16:53 Vrbl 3 10.00 Partly Cloudy SCT041 SCT070 86 78.1 77% 98 30.18 1021.8 0.02 1
20 15:53 W 9 1.75 Heavy Rain Fog/Mist BKN023 BKN055 OVC090 78.1 75 90% 81 30.19 1022.2 0.98
20 14:53 N 3 10.00 Thunderstorm FEW026 SCT050 BKN100 89.1 75.9 65% 100 30.21 1022.8
20 13:53 S 7 10.00 Partly Cloudy SCT100 93 75.9 93 72 58% 106 30.22 1022.9
20 12:53 SE 9 10.00 Fair CLR 91 77 64% 105 30.24 1023.8
20 11:53 S 8 10.00 Fair CLR 88 75 66% 98 30.26 1024.4
20 09:53 S 6 10.00 Fair CLR 80.1 70 71% 83 30.28 1025.0
20 08:53 S 5 10.00 Fair CLR 77 68 74% 79 30.28 1025.2
20 07:53 Calm 10.00 Fair CLR 72 66 73 66 82% 30.29 1025.3
20 06:53 SE 3 10.00 Fair CLR 69.1 64.9 87% 30.28 1025.3
20 05:53 Calm 10.00 Fair CLR 66.9 64 91% 30.27 1024.8
20 04:53 S 3 10.00 Fair CLR 66 64 93% 30.27 1024.6
20 03:53 SE 5 10.00 Fair CLR 66.9 64.9 93% 30.26 1024.4
20 02:53 Calm 10.00 Fair CLR 69.1 66 90% 30.26 1024.4
20 01:53 S 3 10.00 Fair CLR 71.1 66.9 77 71.1 87% 30.27 1024.7
20 00:53 S 5 10.00 Fair CLR 71.1 69.1 94% 30.27 1024.8
19 23:53 S 3 10.00 Fair CLR 73 72 96% 30.29 1025.3
19 22:53 Calm 2.50 Fog/Mist CLR 75 73.9 96% 73 30.29 1025.6
19 21:53 Calm 10.00 Fair CLR 75 73.9 96% 73 30.3 1025.7
19 20:53 Calm 7.00 Fair CLR 75.9 75 97% 75 30.28 1025.0
19 19:53 Calm 10.00 A Few Clouds FEW120 77 75 93.9 75 94% 78 30.28 1025.1 0.1 0.17
19 18:53 NE 12 2.50 Thunderstorm Heavy Rain Fog/Mist BKN039 OVC050 77 73.9 90% 78 30.31 1026.1 0.07
19 17:53 S 7 10.00 Thunderstorm in Vicinity CLR 87.1 73.9 65% 95 30.26 1024.4
19 16:53 S 13 10.00 Fair CLR 91 73.9 57% 101 30.23 1023.5
19 15:53 S 9 10.00 Fair CLR 93 75 56% 104 30.24 1023.7
19 14:53 S 10 10.00 Fair CLR 93 75 56% 104 30.26 1024.1
19 13:53 S 10 10.00 Fair CLR 90 73.9 90 73 59% 99 30.27 1024.6
19 12:53 S 7 G 17 10.00 Fair CLR 89.1 73.9 61% 98 30.29 1025.4
19 11:53 S 5 10.00 Fair CLR 84.9 71.1 63% 90 30.3 1025.9
19 10:53 S 6 10.00 Fair CLR 82 70 67% 86 30.32 1026.3
19 09:53 S 6 10.00 Fair CLR 79 66.9 67% 81 30.32 1026.5
19 08:53 S 7 10.00 Fair CLR 75 64.9 71% 77 30.33 1026.7
19 07:53 S 6 10.00 Fair CLR 73 64 73 66.9 74% 30.33 1026.6
19 06:53 S 3 10.00 Fair CLR 70 63 79% 30.31 1026.3
19 05:53 S 3 10.00 Fair CLR 66.9 62.1 84% 30.31 1025.9
19 04:53 S 3 10.00 Fair CLR 66.9 62.1 84% 30.29 1025.3
19 03:53 SE 3 10.00 Fair CLR 68 62.1 81% 30.27 1024.9
19 02:53 S 3 10.00 Fair CLR 70 63 79% 30.27 1024.6
19 01:53 S 6 10.00 Fair CLR 71.1 64 84 71.1 79% 30.26 1024.4
19 00:53 S 7 10.00 Fair CLR 73 66 79% 30.26 1024.1
18 23:53 S 8 10.00 Fair CLR 75 68 79% 76 30.25 1024.1
18 22:53 S 9 10.00 Fair CLR 77 70 79% 79 30.24 1023.9
18 21:53 S 9 10.00 Fair CLR 79 70 74% 82 30.24 1023.6
18 20:53 S 9 10.00 Fair CLR 81 72 74% 85 30.22 1022.9
18 19:53 S 8 10.00 Fair CLR 84 73 93 84 70% 90 30.19 1022.1
18 18:53 S 13 10.00 Fair CLR 87.1 73 63% 95 30.17 1021.4
18 17:53 S 10 10.00 Fair CLR 89.1 73 59% 97 30.17 1021.3
18 16:53 S 12 10.00 Fair CLR 89.1 73 59% 97 30.18 1021.6
18 15:53 S 14 G 22 10.00 Fair CLR 91 73 56% 100 30.18 1021.7
18 14:53 S 8 G 18 10.00 A Few Clouds FEW048 91.9 73 54% 101 30.18 1021.6
18 13:53 S 13 G 21 10.00 Fair CLR 91 73 91 70 56% 100 30.19 1021.9
18 12:53 Vrbl 7 G 17 10.00 Fair CLR 88 73 61% 96 30.2 1022.5
18 11:53 S 7 10.00 Fair CLR 84.9 72 65% 91 30.22 1023.0
18 10:53 Vrbl 5 10.00 Fair CLR 82 71.1 69% 86 30.23 1023.5
18 09:53 S 7 10.00 Fair CLR 79 69.1 72% 82 30.23 1023.5
18 08:53 Calm 10.00 Fair CLR 73 66 79% 30.23 1023.5
18 07:53 Calm 10.00 Fair CLR 70 64 70 63 82% 30.22 1023.3
18 06:53 S 3 10.00 Fair CLR 66.9 64 91% 30.21 1022.9
18 05:53 Calm 10.00 Fair CLR 63 62.1 97% 30.19 1022.2
18 04:53 Calm 9.00 Fair CLR 63 62.1 97% 30.17 1021.6
18 03:53 Calm 10.00 Fair CLR 66 62.1 87% 30.15 1020.8
18 02:53 Calm 10.00 Fair CLR 66.9 62.1 84% 30.15 1020.7
18 01:53 S 5 10.00 Fair CLR 66 61 77 66 84% 30.14 1020.4
18 00:53 S 3 10.00 Fair CLR 68 61 78% 30.15 1020.6
17 23:53 S 5 10.00 Fair CLR 69.1 61 76% 30.16 1021.1
17 22:53 SE 6 10.00 Fair CLR 71.1 61 71% 30.17 1021.3
17 21:53 S 7 10.00 Fair CLR 72 61 68% 30.16 1021.0
17 20:53 S 9 10.00 Fair CLR 75 62.1 64% 77 30.13 1020.2
17 19:53 S 9 10.00 Fair CLR 77 64 84 77 64% 79 30.11 1019.5
17 18:53 S 14 10.00 Fair CLR 81 66 61% 83 30.09 1018.8
Date Time (edt) Wind (mph) Vis. (mi.) Weather Sky Cond. Air Dwpt Max. Min. Relative Humidity Wind Chill (°F) Heat Index (°F) altimeter (in) sea level (mb) 1 hr 3 hr 6 hr
6 hour
Temperature (ºF) Pressure Precipitation (in)